Theta_e
295 287 284 287 288 290 288 286 286 290 294 292 291 293 298 300 298 298 301 303 306 310 319 323 325 326 329 328 330 330 328 328 327 324 323 323 323 327 328 327 328 328 328 327
289 285 290 291 289 288 286 285 285 290 293 294 293 292 297 299 299 299 300 302 304 309 314 322 324 325 326 327 329 330 329 330 331 330 329 328 329 329 330 330 331 331 329 328
285 288 292 290 288 286 285 283 284 286 291 293 293 289 293 297 300 300 302 302 303 307 311 317 323 325 325 325 326 329 330 331 332 332 331 329 329 329 329 329 329 329 330 330
287 291 289 287 286 287 282 288 289 287 286 283 290 278 289 293 296 298 299 301 301 303 310 315 319 321 326 325 328 329 331 332 333 332 330 328 328 326 326 327 328 331 332 331
285 287 286 284 286 288 285 290 289 287 285 284 287 284 286 292 292 296 298 301 301 303 305 309 317 319 315 324 328 329 331 332 332 332 331 329 328 328 328 329 329 330 331 331
287 292 290 288 290 290 291 288 288 289 286 278 283 284 283 287 292 294 294 295 300 301 300 301 304 308 308 313 317 326 328 329 329 331 331 330 328 328 324 325 326 326 327 328
285 286 290 291 287 290 288 285 277 274 273 274 284 281 284 292 291 290 290 292 293 298 297 298 301 303 305 308 313 320 324 323 327 328 327 328 327 326 325 325 325 325 325 325
281 278 287 291 288 286 286 285 278 272 274 275 283 278 285 289 291 292 294 294 294 295 298 300 302 304 304 306 309 314 316 317 320 322 322 323 324 324 324 324 324 323 323 322
281 281 289 291 291 290 286 282 288 281 275 275 280 284 289 290 289 291 293 294 294 295 297 299 303 307 307 307 308 306 306 309 311 311 313 314 314 314 313 313 314 315 317 317
287 279 286 288 291 291 288 290 281 283 269 269 276 278 280 285 286 289 291 292 293 295 297 299 302 304 304 304 303 308 309 309 310 311 311 311 311 312 312 312 311 311 311 314
289 285 282 286 284 285 284 282 285 284 281 275 274 275 284 285 287 288 291 293 293 294 295 296 297 298 300 300 301 301 302 301 301 302 302 302 302 303 303 304 304 306 306 306
290 285 279 281 288 289 289 286 286 278 278 279 278 277 288 287 289 292 292 293 292 293 293 294 295 296 296 297 298 299 299 299 300 300 301 301 301 301 300 301 301 302 302 302
289 284 276 278 282 285 283 287 288 286 283 279 277 277 288 288 289 291 290 290 291 291 292 294 294 294 295 296 296 297 297 298 299 299 298 298 298 298 298 298 299 300 300 300
290 284 283 277 280 285 281 284 286 285 278 279 280 282 286 286 287 290 289 290 290 291 292 293 293 294 295 295 295 295 296 297 297 297 296 295 295 296 296 296 297 297 297 297
286 278 282 283 285 286 284 284 284 282 284 279 282 283 288 285 285 289 290 291 291 291 292 293 293 293 294 295 295 296 296 296 296 295 295 294 295 295 294 294 294 295 295 295
285 276 280 275 283 283 281 284 285 285 284 283 284 283 289 287 287 288 291 291 290 291 292 293 293 294 295 295 295 295 295 295 295 294 293 294 293 293 292 292 292 292 292 293
282 276 270 268 280 279 271 279 281 282 285 285 280 285 286 286 289 290 290 290 291 291 292 292 292 294 295 295 296 294 294 294 293 292 292 292 292 291 291 291 291 290 291 291
277 279 272 271 271 264 279 284 284 283 284 286 287 288 289 289 289 291 291 291 292 293 293 293 294 294 295 294 293 294 294 293 292 291 290 290 289 289 289 289 288 289 289 289
285 281 275 266 265 276 279 280 281 280 281 284 284 287 289 289 288 287 292 292 292 292 294 295 295 295 294 293 293 293 292 291 290 289 288 287 287 287 286 286 286 287 287 287
284 284 278 267 263 261 277 282 285 284 277 285 287 286 287 289 283 283 289 291 292 293 294 293 293 293 292 292 292 291 290 289 288 287 285 285 285 286 286 284 284 284 285 284
268 270 274 269 267 272 280 283 283 272 276 285 288 287 286 284 285 286 288 288 289 290 290 291 290 289 289 288 288 287 287 287 286 285 284 284 283 283 284 283 283 283 283 283
272 268 270 267 264 265 282 282 278 282 284 285 287 288 288 287 286 286 286 286 287 286 286 286 287 286 287 287 286 286 286 286 284 284 283 280 280 282 283 280 282 282 282 280
271 277 273 276 275 284 283 282 285 287 284 284 285 287 288 287 286 286 286 286 286 285 284 284 283 284 284 285 285 285 285 284 281 278 276 277 278 280 280 279 280 279 279 278
279 282 277 278 281 282 285 286 287 287 286 286 285 285 287 285 285 284 284 284 284 283 283 282 282 282 281 281 281 277 279 277 273 274 275 276 275 278 277 280 280 278 277 277
278 280 279 277 281 282 284 287 288 287 284 284 284 284 284 284 283 283 283 282 282 282 281 280 279 279 277 277 276 275 275 273 274 274 274 275 276 275 276 277 277 279 278 278
279 278 276 275 282 283 283 285 286 286 284 284 283 282 282 282 282 282 281 280 278 278 277 275 274 273 272 272 272 273 273 271 270 273 274 275 275 274 274 274 274 283 283 284
Wind_Speed
3 4 8 11 12 13 18 22 21 17 21 15 20 18 13 13 5 6 7 8 9 11 11 10 8 8 15 14 13 13 10 10 5 5 5 4 4 5 4 4 6 6 6 7
2 9 13 13 14 14 16 16 19 18 23 11 15 10 14 13 8 8 8 9 7 11 8 12 8 7 8 13 12 11 12 11 9 6 6 3 3 3 3 3 5 6 6 6
7 9 10 12 11 14 17 15 14 15 23 6 9 10 9 9 10 9 7 4 4 9 14 8 12 10 7 10 10 10 11 11 11 7 5 3 3 1 4 4 5 5 6 7
7 6 7 9 15 13 18 15 11 13 14 6 9 5 11 10 8 6 7 7 6 4 8 11 9 10 14 9 9 12 10 11 11 11 9 10 6 6 4 4 3 4 6 6
3 6 5 7 8 9 11 12 14 14 15 6 4 6 8 16 17 12 10 9 7 6 6 8 13 11 6 3 10 12 12 11 8 10 10 9 7 3 4 4 6 4 4 5
16 7 5 5 9 11 8 11 12 15 13 5 10 8 7 3 9 6 7 7 4 4 7 8 7 10 10 5 7 4 10 9 4 8 8 7 9 5 4 4 3 2 2 3
3 2 4 5 7 4 2 4 2 2 1 6 4 2 9 5 7 7 7 7 7 7 6 5 7 5 6 8 4 2 6 1 9 8 3 4 4 5 6 4 2 2 2 1
7 3 4 6 3 6 9 6 2 4 1 3 1 3 5 6 8 8 8 6 6 7 7 6 7 5 4 12 6 7 8 6 7 6 5 5 4 5 5 1 2 3 1 1
5 3 3 3 4 4 8 2 1 3 4 2 5 6 2 6 8 6 6 7 6 6 7 7 6 6 7 8 10 8 7 6 8 8 7 8 7 9 8 3 4 3 5 3
2 6 0 4 4 6 7 9 4 3 4 4 4 4 5 10 6 5 5 6 6 6 7 7 6 6 6 7 7 11 6 8 8 7 7 8 6 6 6 6 5 6 6 5
4 4 1 2 3 2 2 5 3 3 1 3 5 2 4 6 6 5 7 6 6 6 6 6 6 6 7 7 10 8 11 10 9 7 6 8 9 7 6 7 7 6 6 6
4 4 5 4 5 2 2 5 5 1 5 5 1 4 6 5 6 8 7 7 6 6 7 7 7 7 7 8 9 8 8 10 7 6 6 9 11 7 7 8 6 6 6 6
7 3 6 1 3 2 4 4 9 5 3 3 2 4 3 4 6 6 8 6 6 7 8 7 7 7 7 7 8 8 7 8 7 7 8 9 8 8 8 6 6 7 8 7
5 3 3 5 10 9 5 10 8 5 2 5 4 10 9 7 5 6 6 7 7 7 7 7 7 7 7 7 7 7 7 7 7 8 8 9 9 8 7 7 7 7 6 6
3 4 7 11 9 5 6 10 9 7 6 5 4 2 10 5 2 4 6 6 7 7 8 7 7 7 7 7 7 7 7 7 6 8 9 8 7 7 6 7 7 7 8 7
4 3 6 6 5 7 7 8 9 8 7 7 8 7 4 3 2 4 7 6 6 7 7 7 7 7 7 7 6 6 6 7 7 8 7 6 7 7 7 7 7 7 7 7
3 4 4 7 6 8 5 3 5 7 8 7 6 6 2 2 3 5 6 5 5 6 7 7 7 6 6 6 6 6 6 6 7 7 7 6 6 7 6 6 6 6 6 5
2 4 2 6 7 4 4 5 2 5 8 10 9 9 8 3 8 10 5 6 7 6 6 6 6 6 6 6 7 6 6 7 7 7 7 6 6 7 6 7 7 7 5 7
6 2 4 1 1 8 4 6 5 5 3 14 12 12 7 7 9 9 11 10 10 9 9 8 7 7 7 7 6 7 7 6 7 6 5 5 5 6 6 6 6 5 5 5
2 4 1 5 1 4 1 5 5 5 1 14 15 16 10 4 2 3 7 8 10 10 8 7 7 6 7 6 6 6 5 6 5 4 3 3 4 5 6 5 5 3 4 4
1 2 6 4 3 7 3 8 2 5 4 8 11 12 16 8 4 4 6 9 8 8 9 7 8 7 6 6 6 6 5 4 3 3 3 4 4 5 5 4 3 4 5 5
6 5 5 1 1 6 3 4 3 4 4 4 5 7 8 7 8 9 8 9 9 11 11 9 8 7 6 6 6 5 4 1 2 2 3 4 4 4 3 4 4 3 4 4
2 5 3 3 5 2 0 1 4 5 2 2 4 3 1 3 3 4 5 6 7 7 6 6 7 8 8 8 7 5 5 3 3 3 2 2 3 3 3 3 3 3 3 2
4 3 2 3 2 1 5 4 5 6 5 8 4 4 5 4 4 3 5 5 6 6 6 5 6 7 7 7 7 4 4 3 2 1 2 1 0 1 0 0 1 1 0 0
4 3 4 5 7 6 6 6 6 3 1 2 5 5 5 7 5 4 4 5 5 5 5 4 5 5 6 7 6 6 5 2 3 3 3 2 1 3 2 3 3 2 2 3
5 7 4 6 5 3 3 3 3 5 5 5 4 3 3 5 5 4 5 4 4 4 4 5 6 6 7 7 7 8 9 6 4 4 3 3 2 2 2 1 2 2 2 2
Wind_Direction
301 266 263 271 267 292 314 302 291 293 294 295 248 239 221 234 245 257 224 215 182 165 166 175 174 166 168 173 176 188 170 178 181 183 170 163 178 181 194 196 191 191 187 189
313 272 277 293 292 281 272 287 286 291 277 346 305 256 212 235 200 198 223 261 189 154 152 153 170 167 173 163 170 177 180 183 199 192 179 166 161 176 183 195 201 210 203 196
279 263 280 291 284 282 273 270 272 278 298 299 276 297 280 255 227 190 205 243 317 179 153 158 168 175 182 150 170 177 182 185 200 185 153 133 134 188 203 194 206 211 208 201
290 326 329 309 273 265 282 285 254 266 282 270 8 272 228 252 262 221 194 207 256 302 127 160 162 172 181 163 166 176 189 195 198 180 175 179 191 173 184 178 185 201 203 211
309 345 339 294 275 321 271 300 277 263 279 327 213 258 241 205 221 219 211 190 201 207 172 165 166 153 75 127 162 176 181 186 188 185 185 188 196 177 176 190 190 190 193 182
268 279 270 252 284 264 267 299 259 249 236 277 249 246 280 157 181 200 94 59 114 135 78 68 60 103 100 50 47 139 162 148 161 181 189 178 186 191 180 145 124 121 119 150
267 214 245 239 277 105 148 283 307 333 31 229 2 262 255 90 69 83 78 65 49 81 80 79 88 80 101 112 105 49 111 350 149 164 181 161 151 120 118 118 134 117 326 279
331 329 353 341 320 310 290 261 295 277 224 247 342 236 254 74 66 80 69 75 76 76 88 70 74 54 147 111 87 107 106 85 58 70 79 101 111 86 48 92 137 157 177 120
321 331 312 343 322 338 334 221 357 300 223 337 193 243 121 68 60 60 71 78 77 81 90 100 89 97 56 86 122 100 103 97 99 103 95 68 64 91 96 50 52 71 65 47
300 290 111 301 309 253 232 328 341 232 332 314 336 48 38 16 40 70 79 77 78 88 92 88 82 89 88 78 62 79 80 113 110 102 101 116 113 96 106 120 97 80 63 55
269 265 339 216 209 330 296 276 274 292 349 330 329 39 357 342 354 94 78 89 97 91 91 91 85 66 75 78 78 80 97 78 67 49 102 100 85 68 65 71 62 70 69 56
315 301 294 306 130 160 216 294 311 297 331 349 194 291 339 12 2 85 81 69 64 83 90 90 91 81 70 73 76 77 71 88 78 89 83 81 84 75 80 68 62 64 77 63
344 319 308 92 113 199 277 262 254 290 290 267 349 305 32 59 56 83 97 91 81 73 72 79 75 78 79 77 77 76 70 79 82 80 77 74 76 76 66 65 56 48 51 46
336 309 317 333 312 297 313 331 325 257 311 298 259 317 346 26 56 90 101 107 105 104 87 79 68 70 76 79 81 80 78 73 74 76 78 75 65 65 63 57 58 62 62 63
68 306 336 304 311 343 320 300 303 303 264 230 271 296 305 33 80 128 131 114 99 104 97 95 95 89 82 80 79 78 77 80 77 78 76 72 72 72 72 62 53 49 47 44
10 298 319 287 263 323 280 286 304 301 281 289 294 288 259 55 71 121 130 131 130 117 106 106 99 98 96 96 97 86 77 76 79 80 77 75 69 60 53 51 47 45 40 39
338 353 344 277 335 322 21 337 327 333 325 335 311 291 312 182 169 149 127 138 124 116 119 116 110 103 99 102 101 96 93 86 77 79 71 66 68 66 57 56 56 49 42 40
229 311 250 276 345 23 256 32 339 297 290 320 306 326 318 317 64 51 41 125 108 105 101 92 92 87 78 75 76 84 81 80 79 71 64 53 57 57 49 47 43 37 29 32
206 215 283 121 266 270 41 19 360 13 353 5 344 337 353 89 70 31 23 51 68 64 60 59 69 78 76 75 84 87 82 88 82 73 67 56 57 64 58 52 43 38 35 29
156 220 264 354 74 243 7 312 324 314 10 5 14 1 345 23 58 24 21 44 57 60 58 60 60 72 72 48 64 89 87 90 89 93 94 76 68 71 66 52 47 42 44 22
228 233 221 244 261 291 288 299 289 61 320 357 41 359 17 58 56 66 36 53 56 59 55 54 55 60 50 37 43 57 57 78 136 133 103 76 64 71 60 48 38 22 15 15
171 162 204 218 55 292 335 330 102 219 303 55 77 79 43 16 40 45 40 45 42 39 32 26 34 32 27 31 34 20 11 60 85 72 63 51 40 38 47 55 23 13 21 14
257 185 214 155 215 210 271 214 202 167 164 1 115 86 156 98 64 66 68 56 47 39 37 21 22 16 23 14 11 350 343 16 63 68 52 36 31 36 44 50 26 17 16 19
236 164 190 37 345 206 223 212 219 201 165 141 123 129 138 142 117 81 60 54 57 48 40 17 23 17 15 4 10 351 333 17 54 335 288 262 64 11 80 52 155 129 137 70
201 101 194 257 283 280 243 226 238 262 157 124 127 148 149 138 122 106 79 54 45 44 23 22 30 19 10 359 356 343 340 2 314 294 283 282 215 189 192 205 185 165 191 148
184 198 170 232 222 199 260 199 226 243 226 216 184 148 87 81 92 81 83 68 32 18 21 21 25 12 356 353 349 352 351 342 312 292 281 253 228 221 194 190 311 251 131 92